SCP
0 0 0 0 0 0 0 0 0 0 0 0 0 0 0 0 0 0 0 0 0 0
0 0 0 0 0 0 0 0 0 0 0 0 0 0 0 0 0 0 0 0 0 0
0 0 0 0 0 0 0 0 0 0 0 0 0 0 0 0 0 0 0 0 0 0
0 0 0 0 0 0 0 0 0 0 0 0 0 0 0 0 0 0 0 0 0 0
0 0 0 0 0 0 0 0 0 0 0 0 0 0 0 0 0 0 0 0 0 0
0 0 0 0 0 0 0 0 0 0 0 0 0 0 0 0 0 0 0 0 0 0
0 0 0 0 0 0 0 0 0 0 0 0 0 0 0 0 0 0 0 0 0 0
0 0 0 0 0 0 0 0 0 0 0 0 0 0 0 0 0 0 0 0 0 0
0 0 0 0 0 0 0 0 0 0 0 0 0 0 0 0 0 0 0 0 0 0
0 0 0 0 0 0 0 0 0 0 0 0 0 0 0 0 0 0 0 0 0 0
0 0 0 0 0 0 0 0 0 0 0 0 0 0 0 0 0 0 0 0 0 0
0 0 0 0 0 0 0 0 0 0 0 0 0 0 0 0 0 0 0 0 0 0
0 0 0 0 0 0 0 0 0 0 0 0 0 0 0 0 0 0 0 0 0 0
0 0 0 0 0 0 0 0 0 0 0 0 0 0 0 0 0 0 0 0 0 0
Wind_Speed_500mb
53 43 27 21 27 25 27 28 24 20 17 22 21 30 30 32 36 42 45 46 52 57
32 33 41 25 19 17 18 20 20 22 21 25 25 28 31 35 39 45 50 54 55 57
23 25 30 32 15 14 10 7 5 8 12 14 18 21 25 28 32 36 38 42 47 50
30 28 25 20 16 12 8 3 1 5 9 13 16 21 24 27 31 34 37 39 44 46
26 24 20 17 14 11 7 5 4 7 10 15 19 22 26 30 34 37 40 43 47 48
24 21 18 16 13 10 7 8 11 13 15 19 23 27 30 33 36 39 42 45 48 51
23 19 16 12 10 8 9 11 13 17 22 26 30 32 36 40 43 45 47 51 55 57
20 16 13 10 8 8 10 13 18 21 26 31 35 39 42 45 49 53 56 57 61 65
17 14 11 7 5 6 10 14 20 25 31 35 39 43 47 51 54 57 61 65 65 66
16 11 7 3 2 7 13 21 28 33 37 39 44 49 53 56 60 64 66 69 72 73
15 10 4 4 9 16 23 30 35 38 42 44 48 52 56 60 64 66 66 68 70 72
12 7 7 12 18 24 29 34 36 40 43 48 50 55 58 61 65 67 69 68 69 70
9 9 13 19 24 28 31 34 39 41 45 48 49 51 55 59 64 67 68 67 67 66
10 15 19 23 24 28 33 37 41 42 43 44 47 50 54 57 61 63 63 63 65 64
Wind_Direction_500mb
225 223 207 216 231 242 248 253 257 256 251 257 263 270 268 270 277 285 285 293 289 295
209 215 210 201 212 214 222 231 246 255 256 265 273 275 276 277 278 278 282 283 284 285
182 191 200 218 177 169 178 202 247 274 281 283 288 292 293 293 293 295 296 296 294 295
127 125 127 129 128 122 114 106 353 318 313 311 312 315 317 318 317 317 317 316 314 313
127 126 128 125 120 110 101 84 47 9 351 343 336 331 329 327 325 322 321 319 316 316
134 133 130 124 115 99 71 39 22 6 351 344 338 333 328 323 321 321 323 323 321 319
139 136 127 115 101 79 52 28 9 356 347 338 331 326 324 323 323 323 324 324 323 322
143 135 121 105 82 52 27 3 351 342 332 324 318 318 319 321 323 322 322 321 321 320
145 134 128 114 78 18 350 337 329 322 319 318 319 321 322 322 321 320 320 320 319 318
154 150 146 143 333 329 329 327 324 323 323 324 323 322 321 321 320 320 321 321 320 319
164 168 188 292 312 319 321 321 323 324 324 324 323 321 322 322 321 320 321 321 321 321
185 211 271 297 307 312 315 317 320 323 324 324 325 325 325 323 320 320 320 320 320 319
216 258 288 303 310 315 319 323 326 329 328 328 329 329 327 325 323 323 321 319 317 316
257 285 298 305 311 318 321 323 324 323 324 325 326 329 327 326 323 323 321 320 320 319
Wind_Speed_850mb
53 43 27 21 27 25 27 28 24 20 17 22 21 30 30 32 36 42 45 46 52 57
32 33 41 25 19 17 18 20 20 22 21 25 25 28 31 35 39 45 50 54 55 57
23 25 30 32 15 14 10 7 5 8 12 14 18 21 25 28 32 36 38 42 47 50
30 28 25 20 16 12 8 3 1 5 9 13 16 21 24 27 31 34 37 39 44 46
26 24 20 17 14 11 7 5 4 7 10 15 19 22 26 30 34 37 40 43 47 48
24 21 18 16 13 10 7 8 11 13 15 19 23 27 30 33 36 39 42 45 48 51
23 19 16 12 10 8 9 11 13 17 22 26 30 32 36 40 43 45 47 51 55 57
20 16 13 10 8 8 10 13 18 21 26 31 35 39 42 45 49 53 56 57 61 65
17 14 11 7 5 6 10 14 20 25 31 35 39 43 47 51 54 57 61 65 65 66
16 11 7 3 2 7 13 21 28 33 37 39 44 49 53 56 60 64 66 69 72 73
15 10 4 4 9 16 23 30 35 38 42 44 48 52 56 60 64 66 66 68 70 72
12 7 7 12 18 24 29 34 36 40 43 48 50 55 58 61 65 67 69 68 69 70
9 9 13 19 24 28 31 34 39 41 45 48 49 51 55 59 64 67 68 67 67 66
10 15 19 23 24 28 33 37 41 42 43 44 47 50 54 57 61 63 63 63 65 64
Wind_Direction_850mb
225 223 207 216 231 242 248 253 257 256 251 257 263 270 268 270 277 285 285 293 289 295
209 215 210 201 212 214 222 231 246 255 256 265 273 275 276 277 278 278 282 283 284 285
182 191 200 218 177 169 178 202 247 274 281 283 288 292 293 293 293 295 296 296 294 295
127 125 127 129 128 122 114 106 353 318 313 311 312 315 317 318 317 317 317 316 314 313
127 126 128 125 120 110 101 84 47 9 351 343 336 331 329 327 325 322 321 319 316 316
134 133 130 124 115 99 71 39 22 6 351 344 338 333 328 323 321 321 323 323 321 319
139 136 127 115 101 79 52 28 9 356 347 338 331 326 324 323 323 323 324 324 323 322
143 135 121 105 82 52 27 3 351 342 332 324 318 318 319 321 323 322 322 321 321 320
145 134 128 114 78 18 350 337 329 322 319 318 319 321 322 322 321 320 320 320 319 318
154 150 146 143 333 329 329 327 324 323 323 324 323 322 321 321 320 320 321 321 320 319
164 168 188 292 312 319 321 321 323 324 324 324 323 321 322 322 321 320 321 321 321 321
185 211 271 297 307 312 315 317 320 323 324 324 325 325 325 323 320 320 320 320 320 319
216 258 288 303 310 315 319 323 326 329 328 328 329 329 327 325 323 323 321 319 317 316
257 285 298 305 311 318 321 323 324 323 324 325 326 329 327 326 323 323 321 320 320 319